This is the latest recevied weather packets stored in our database for station/object VE3GIF. If no packets are shown the sender has not sent any weather packets the latest 10 day(s).
| Time | Temp. | Humidity | Pressure | Rain* | Wind** | Luminosity | Snow |
|---|---|---|---|---|---|---|---|
| 1778261457 | 8.89° C | 70% | 1010.9 hPa | 0 mm | - | - | - |
| 1778261157 | 8.89° C | 69% | 1011 hPa | 0 mm | - | - | - |
| 1778260256 | 8.89° C | 67% | 1011.1 hPa | 0 mm | - | - | - |
| 1778259656 | 8.33° C | 71% | 1011.1 hPa | 0 mm | - | - | - |
| 1778258154 | 7.78° C | 72% | 1011.4 hPa | 0 mm | - | - | - |
| 1778257854 | 7.78° C | 71% | 1011.5 hPa | 0 mm | - | - | - |
| 1778257554 | 7.78° C | 71% | 1011.5 hPa | 0 mm | - | - | - |
| 1778256953 | 7.78° C | 71% | 1011.5 hPa | 0 mm | - | - | - |
| 1778256353 | 7.78° C | 70% | 1011.6 hPa | 0 mm | - | - | - |
| 1778256052 | 7.78° C | 70% | 1011.7 hPa | 0 mm | - | - | - |
| 1778255752 | 7.78° C | 71% | 1011.5 hPa | 0 mm | - | - | - |
| 1778255151 | 7.22° C | 72% | 1011.7 hPa | 0 mm | - | - | - |
| 1778254851 | 7.22° C | 72% | 1011.7 hPa | 0 mm | - | - | - |
| 1778254250 | 7.22° C | 73% | 1011.7 hPa | 0 mm | - | - | - |
| 1778253350 | 7.22° C | 73% | 1011.7 hPa | 0 mm | - | - | - |
| 1778251248 | 7.22° C | 71% | 1011.7 hPa | 0 mm | - | - | - |
| 1778250947 | 7.22° C | 71% | 1011.6 hPa | 0 mm | - | - | - |
| 1778250347 | 7.78° C | 71% | 1011.5 hPa | 0 mm | - | - | - |
| 1778249746 | 7.78° C | 71% | 1011.5 hPa | 0 mm | - | - | - |
| 1778249146 | 7.78° C | 70% | 1011.4 hPa | 0 mm | - | - | - |
| 1778248846 | 7.78° C | 70% | 1011.3 hPa | 0 mm | - | - | - |
| 1778247945 | 8.33° C | 71% | 1011.4 hPa | 0 mm | - | - | - |
| 1778247644 | 8.33° C | 71% | 1011.3 hPa | 0 mm | - | - | - |
| 1778247044 | 7.78° C | 68% | 1011.3 hPa | 0 mm | - | - | - |
| 1778246744 | 7.22° C | 68% | 1011.5 hPa | 0 mm | - | - | - |
* Rain latest hour (hover to see other rain measurements)
** Current wind speed in m/s (hover to see current wind gust speed)